RH
85 86 82 85 90 89 90 84 87 92 94 93 88 88 88 89 89 92 85 29 34 57 61 36 30 28 23 27 36 42 54 59 42 40 29 21 21 22 22 26 30 33 40 36 63
76 77 78 77 75 76 79 84 85 84 86 94 94 88 87 91 95 92 12 29 53 75 73 41 30 25 31 32 39 44 61 50 36 28 25 23 22 23 20 27 30 37 48 60 71
79 78 79 77 80 78 79 79 78 78 77 74 80 94 89 90 92 62 34 68 78 75 70 40 25 27 32 37 42 45 48 38 30 22 22 22 21 25 26 25 28 33 54 63 70
76 77 76 79 77 79 80 80 80 80 80 80 79 78 99 81 60 29 51 75 73 78 74 28 27 33 37 43 42 47 44 36 32 28 25 24 22 23 24 22 24 30 53 60 62
75 76 75 76 77 78 80 82 81 82 84 85 83 78 95 79 74 30 29 74 83 70 40 31 31 35 39 37 36 48 40 39 37 33 27 28 28 28 28 26 31 48 54 59 59
76 75 77 80 81 81 81 81 82 86 89 89 91 80 85 96 50 47 52 50 78 65 37 28 30 30 33 37 38 37 42 38 32 33 30 33 33 33 31 32 34 49 55 59 61
75 78 80 81 82 83 83 83 81 80 51 90 92 86 74 78 52 55 56 59 60 57 34 27 28 32 36 39 40 40 42 40 41 36 35 37 41 45 32 32 36 46 51 56 58
78 79 80 82 82 83 85 85 85 48 62 86 86 83 78 61 60 60 52 52 54 46 32 24 24 36 42 40 49 49 51 63 47 45 40 36 54 37 40 36 39 42 47 53 55
79 81 83 83 82 85 90 90 59 49 74 84 86 83 78 57 72 58 65 60 37 33 31 32 36 48 47 66 70 69 78 72 55 48 49 45 50 45 38 51 50 46 45 50 60
82 83 84 83 84 89 88 62 47 60 59 74 80 90 73 67 59 54 61 60 27 40 40 45 64 72 76 75 84 84 79 70 67 52 60 61 53 49 37 52 56 56 58 68 81
83 83 83 84 88 92 71 67 64 62 67 79 72 69 60 46 47 53 55 39 39 43 59 54 73 81 80 68 64 69 72 69 62 50 60 72 61 56 46 43 52 60 77 90 84
84 84 84 84 89 80 72 85 74 91 89 64 61 66 60 58 63 60 38 37 43 53 59 68 77 68 66 66 67 68 74 78 63 44 61 65 69 64 51 52 60 61 83 86 78
86 86 84 84 81 72 82 71 66 84 98 71 58 64 60 58 70 70 60 49 47 62 72 76 57 60 66 73 77 80 81 79 72 41 44 43 60 56 62 70 75 86 86 85 85
88 90 71 86 77 90 75 82 79 83 99 64 59 53 51 48 66 60 61 65 59 60 70 67 54 60 68 73 68 91 70 68 66 55 84 57 87 59 60 69 74 86 88 82 82
86 89 82 78 87 94 79 87 81 93 99 35 60 44 49 50 44 70 56 60 58 59 60 69 64 70 73 75 62 64 42 63 49 67 60 63 84 69 70 74 65 76 84 78 83
83 76 68 69 74 78 83 81 78 82 80 62 64 61 80 76 50 60 84 84 66 56 66 64 45 52 50 41 47 46 58 65 72 73 95 80 79 73 86 78 64 70 75 72 66
65 47 54 71 81 84 80 75 85 82 55 70 75 66 81 91 85 85 97 99 99 96 98 83 82 39 35 46 45 56 74 96 96 95 95 76 86 79 61 65 76 79 80 72 86
58 36 52 64 83 83 74 82 79 64 94 75 78 70 88 89 97 98 96 99 100 90 98 96 98 76 49 47 58 62 66 87 82 99 88 82 98 80 63 66 87 85 85 62 65
49 40 52 70 76 87 87 92 88 95 89 93 78 79 80 86 91 97 98 97 93 92 88 95 68 58 39 39 45 57 82 62 89 93 97 85 66 60 49 60 65 76 78 76 68
63 79 60 65 78 76 90 86 83 71 77 82 90 77 90 86 95 96 96 98 97 100 95 95 91 72 40 41 45 52 57 80 90 100 100 80 73 74 64 61 57 69 84 78 81
73 86 50 53 73 90 98 94 88 69 80 87 83 96 88 98 98 98 98 100 98 97 100 89 82 72 50 53 60 63 78 86 78 86 93 96 81 81 78 72 68 74 79 79 85
89 82 53 56 88 100 97 97 85 98 83 79 77 82 88 93 97 98 98 100 100 100 98 93 93 94 76 63 56 50 62 76 89 87 94 94 82 81 91 81 73 74 75 84 94
97 97 52 52 96 96 84 78 94 92 96 96 90 86 80 95 97 87 94 98 98 100 98 96 93 96 95 84 65 53 62 79 86 92 99 94 80 69 61 76 81 70 78 88 96
93 97 89 93 96 98 98 88 86 68 85 83 89 79 79 88 87 85 86 90 84 85 74 69 90 79 86 75 84 82 87 80 80 99 96 92 76 49 57 71 68 77 90 95 94
94 91 92 98 93 97 96 96 88 94 78 80 80 75 97 97 90 91 78 83 76 83 86 78 94 99 84 83 91 87 90 96 90 79 81 80 86 75 61 66 69 84 94 97 91
90 95 94 99 95 96 93 91 94 89 97 93 96 86 98 98 98 97 96 92 88 82 99 88 91 88 87 81 90 92 80 90 93 82 86 89 89 70 68 78 88 94 98 93 94
84 83 94 83 99 96 90 96 92 92 79 100 96 97 98 98 100 94 91 93 91 87 95 95 99 92 98 85 84 78 85 92 89 87 79 93 71 66 65 64 80 92 97 94 95
Wind_Speed
21 21 22 23 22 22 23 24 25 25 24 25 25 24 24 25 27 27 11 16 9 19 10 8 9 8 4 2 2 3 3 4 6 7 4 1 2 2 2 5 3 2 6 3 28
21 22 23 23 23 25 25 25 26 26 26 26 24 24 23 24 29 20 35 27 20 11 20 15 7 7 3 4 2 3 4 9 4 4 4 1 1 3 3 3 3 2 5 21 28
22 24 24 25 25 25 25 25 26 27 27 27 26 23 21 23 8 11 6 9 20 19 23 17 12 7 5 3 5 6 5 4 3 2 3 3 1 1 6 2 5 6 7 10 18
24 25 25 26 27 28 28 27 27 28 28 27 25 25 19 13 8 1 4 7 19 17 22 10 5 8 6 6 5 3 6 4 2 2 3 2 2 1 3 1 1 7 14 10 11
25 25 25 26 27 28 29 29 30 32 30 28 24 20 15 7 12 18 14 3 14 21 19 7 6 6 7 6 5 5 4 5 6 3 3 5 3 5 4 5 5 9 9 12 12
25 26 27 28 28 29 30 31 32 34 31 28 23 17 13 19 12 15 14 15 17 20 12 8 7 7 6 5 7 5 7 5 4 4 3 6 4 6 6 6 5 9 10 9 11
26 27 28 30 31 33 33 34 36 37 35 28 21 14 13 25 12 19 20 18 21 21 6 13 7 6 6 2 5 3 3 1 4 4 5 5 5 7 8 6 9 10 9 8 8
27 28 30 32 34 36 37 38 42 32 32 27 14 12 10 8 15 25 25 22 20 17 14 5 9 4 4 2 5 5 3 3 3 7 5 7 8 3 5 7 9 10 8 8 6
28 30 31 34 37 37 40 39 37 31 23 11 6 8 9 8 9 23 27 10 14 12 9 8 6 5 4 6 3 3 3 4 4 7 4 6 4 5 2 8 7 8 8 6 6
30 32 33 35 37 40 37 38 21 13 16 3 2 4 7 4 8 19 17 24 4 6 4 4 4 4 3 4 9 4 2 2 4 2 4 4 6 5 3 4 6 7 7 7 6
29 32 34 34 36 34 32 13 8 4 16 10 15 14 18 18 19 9 7 13 5 5 6 1 3 11 6 4 5 4 3 4 3 4 5 7 7 8 3 2 6 6 6 5 6
30 33 34 36 37 19 23 5 10 11 17 12 21 22 32 25 10 15 5 7 8 6 5 4 8 4 7 5 5 4 4 3 4 3 4 3 7 8 2 1 2 6 7 8 6
31 33 36 37 27 17 17 7 23 20 6 11 4 5 6 9 11 8 1 6 6 6 4 5 3 11 8 5 6 3 6 3 6 2 2 1 5 5 2 3 3 5 4 3 6
33 35 37 38 7 20 8 21 25 14 4 6 6 5 5 2 5 9 3 7 4 9 9 5 4 6 4 4 8 5 9 10 5 2 3 3 4 5 1 1 2 3 5 6 4
35 36 38 20 13 8 19 26 21 1 3 8 5 3 12 5 2 3 7 4 4 7 6 7 3 5 5 6 9 3 4 5 3 4 1 2 3 6 2 3 5 5 5 6 4
36 37 33 13 14 14 27 21 3 5 4 7 5 11 9 6 3 3 5 2 6 4 3 5 2 3 6 4 7 6 6 7 4 3 2 5 4 4 3 5 3 3 5 6 4
38 40 20 13 8 24 21 4 5 4 6 9 8 10 6 6 4 6 2 6 3 5 4 0 3 3 3 8 5 5 6 2 2 2 5 3 2 7 4 0 3 7 7 6 2
40 34 9 10 16 21 8 5 6 4 4 5 7 12 3 8 4 3 3 3 1 3 3 5 4 3 6 5 7 3 6 5 6 3 3 4 5 5 2 4 2 5 4 4 4
36 24 7 14 24 8 4 5 4 4 6 8 14 4 5 2 3 3 1 1 5 6 5 4 3 2 4 3 2 4 3 3 6 1 2 3 5 2 2 4 4 6 3 4 4
27 10 6 26 12 5 5 3 2 6 8 4 3 4 4 6 5 1 4 1 2 3 2 3 5 3 3 4 7 2 5 3 3 3 4 4 4 4 4 6 5 4 4 5 4
8 4 10 26 5 5 3 4 6 10 8 3 3 4 5 5 3 5 5 3 2 3 3 4 4 2 2 2 7 3 1 4 4 3 5 1 5 4 5 7 8 6 5 4 4
5 3 16 23 4 2 2 9 9 5 4 4 3 3 4 5 5 4 4 6 8 1 3 3 4 3 1 2 2 1 5 4 4 4 2 3 5 3 4 5 6 6 5 4 4
3 3 7 9 3 3 5 6 3 6 6 5 4 5 4 4 4 5 7 6 9 4 3 2 1 3 3 3 4 2 2 4 5 3 5 5 4 2 3 2 4 5 5 5 5
3 4 4 4 0 2 5 4 10 7 5 4 4 5 8 4 3 4 5 6 8 7 10 2 3 5 5 5 3 3 1 4 5 3 3 5 3 2 4 4 5 6 5 6 6
3 2 1 4 4 4 2 3 11 8 3 5 4 8 6 3 5 3 3 4 4 9 5 4 3 3 3 1 1 2 4 3 4 4 5 4 7 6 6 7 6 5 2 2 4
2 2 3 3 4 4 5 4 7 9 4 4 2 11 5 3 5 4 2 1 1 5 4 5 3 3 4 5 1 2 4 5 2 2 5 2 6 7 2 3 2 4 3 3 4
2 1 1 3 4 3 2 6 10 15 5 7 4 4 4 2 6 4 3 4 1 3 2 3 3 2 3 3 3 4 5 4 2 3 4 5 5 4 3 5 4 4 4 4 4
Wind_Direction
356 355 351 348 345 339 333 328 326 326 325 324 324 324 325 324 317 312 254 249 222 230 204 179 180 175 148 179 143 138 93 204 209 165 226 23 142 6 50 103 56 24 139 203 151
352 348 348 345 340 337 333 331 330 329 323 322 318 319 321 324 318 285 284 272 237 228 200 176 170 140 159 189 192 135 168 215 225 185 169 108 117 138 107 76 24 40 41 129 147
353 351 350 346 343 341 337 331 328 324 318 315 313 315 319 326 311 244 276 270 223 205 200 195 165 136 175 147 200 174 209 224 237 176 130 121 79 359 122 205 197 194 150 142 144
354 350 348 346 343 339 335 330 326 324 319 313 308 306 314 316 271 130 356 312 193 202 206 167 130 149 172 189 186 179 221 220 226 141 103 170 138 356 174 178 20 190 161 149 163
354 350 345 340 337 336 332 328 322 319 314 308 305 300 308 249 251 273 293 354 180 180 172 166 150 143 179 186 160 217 209 206 245 283 209 125 198 207 228 181 60 121 150 173 174
352 347 342 338 336 332 331 327 321 315 310 306 296 287 285 257 278 295 283 249 202 186 189 160 184 186 182 196 171 203 207 240 239 198 215 169 228 147 249 161 124 154 188 187 178
348 344 340 337 335 332 330 325 319 313 317 309 288 259 257 246 272 271 303 301 219 202 162 199 167 150 151 173 185 149 164 282 224 207 228 163 261 223 221 157 183 190 194 197 203
344 341 340 338 336 332 329 325 318 313 316 315 273 219 250 253 266 270 271 266 238 215 218 196 189 134 135 115 29 139 77 184 258 177 243 133 252 279 192 180 195 196 207 196 173
344 341 339 336 334 332 330 327 323 312 315 317 154 189 260 273 236 261 253 227 214 210 196 146 138 150 87 107 32 352 205 207 308 199 142 185 275 258 283 187 204 198 192 157 121
343 342 340 337 334 334 336 334 332 335 12 328 203 204 265 270 321 302 267 209 161 126 79 97 73 122 85 145 211 199 184 254 225 180 162 191 258 299 349 142 149 138 121 124 109
341 341 339 338 336 337 345 3 13 336 348 252 263 272 292 291 314 320 201 142 133 106 143 149 135 203 166 164 147 149 179 208 232 246 155 215 224 231 262 47 119 135 129 111 100
339 339 340 338 334 342 358 38 4 301 308 263 260 256 257 270 294 292 175 153 181 164 114 77 234 166 161 164 154 159 185 256 299 251 160 157 247 246 146 296 314 180 156 155 130
338 339 341 337 334 349 355 8 343 343 284 305 252 257 276 180 222 248 242 344 137 132 156 157 193 176 146 158 188 204 225 234 212 330 77 127 301 284 98 61 56 40 117 110 148
336 336 340 337 341 334 338 334 332 335 292 284 4 316 334 218 242 178 191 145 210 177 147 209 238 116 135 198 192 201 196 219 202 136 226 25 264 282 288 33 72 99 131 148 145
335 337 339 343 308 323 325 329 332 152 3 322 311 293 310 211 291 250 224 236 181 155 137 235 215 194 177 203 167 211 113 155 105 95 21 345 57 269 50 279 223 196 176 176 185
335 339 343 343 326 329 330 330 27 43 278 318 328 332 349 352 6 26 133 73 311 147 85 191 165 145 154 77 141 140 73 53 62 105 360 239 149 271 201 214 179 167 178 176 174
337 339 342 325 308 331 331 12 35 97 334 321 331 326 333 332 348 14 131 144 182 121 198 176 21 357 111 87 57 93 88 39 14 2 220 245 82 245 246 144 217 180 170 173 149
335 342 357 329 328 332 350 51 67 263 268 306 302 317 0 4 8 360 140 139 213 76 109 157 174 334 337 133 165 148 138 153 186 196 247 158 225 253 290 327 303 113 142 155 147
338 344 2 339 335 357 57 45 207 251 312 314 316 353 316 341 18 329 258 158 195 188 138 131 90 6 15 77 155 168 176 169 105 249 46 228 290 344 32 53 99 110 106 229 259
340 330 327 343 344 44 64 324 295 314 321 319 300 21 316 322 350 279 164 357 181 172 65 184 106 93 301 58 20 87 149 88 7 131 234 291 274 246 221 204 181 187 234 268 281
10 1 347 346 341 45 44 287 301 302 320 271 297 288 285 306 278 354 10 66 322 113 170 133 95 230 135 177 177 136 54 60 112 122 162 227 266 213 223 206 193 215 234 248 281
34 353 349 349 42 6 4 313 296 306 320 312 311 304 305 303 351 18 36 6 354 33 73 46 106 118 167 311 302 143 153 136 124 248 106 141 276 332 265 201 171 218 241 260 243
12 284 341 3 58 334 304 300 298 320 310 341 308 15 313 309 27 14 3 354 3 55 80 128 293 93 20 355 349 197 148 112 109 107 195 136 263 48 75 91 221 212 255 271 269
51 356 323 42 326 109 322 302 337 317 292 334 289 336 334 345 3 1 11 8 353 16 26 162 103 143 179 203 142 145 86 137 117 140 182 221 259 251 226 230 249 253 226 241 252
47 277 195 314 324 326 300 302 333 340 331 320 322 5 336 322 341 0 354 8 3 355 18 74 92 81 31 61 64 137 142 159 159 171 178 242 202 255 216 211 229 260 245 273 285
92 59 352 287 309 357 343 308 315 326 266 301 6 333 343 16 8 314 6 62 312 355 43 351 105 77 4 43 74 228 229 189 173 197 260 189 267 230 271 151 237 230 211 269 283
106 127 227 284 330 39 259 336 314 313 271 251 327 305 319 23 1 356 52 57 104 131 45 66 114 76 254 350 358 348 233 182 175 220 170 219 243 176 237 242 248 232 225 265 285